Погода в Кашире

Погода в Кашире : погода сейчас, прогноз погоды и архив. Всё, что Вы хотите узнать о погоде в Кашире!

Поиск расширенной информации на нашем сайте:

Другие новости

Новости СМИ2

Главная страница сайта

Новости сайта

03.07.2017

Напоминаем, что на нашем специализированном сайте Метеоцентр.Азия вы можете получить высокодетализированные автоматические прогнозы погоды по пунктам России, СНГ и мира в авиационном формате (включающие направление и скорость ветра, видимость, явления погоды, количество и форму облачности, нижнюю и верхнюю границу облачности).


Погода в Кашире - сегодня

Время (UTC), дата Ветер
(°,м/с) 
Видим.   Явления Облачность Т
(°С)
Тd
(°С)
f(%) Тe
(°С)
Pmin
(гПа)
dP
(гПа)
Po
(мм)
O2
(г/м3)
Тmin Tmax R s Состояние
почвы
12 20.10.17 280 (З) 20000 м    8/8 300 м кучево-дожд. 
[Cb cap]
+6 +0.6 68 +6  1021.4  0.1  746  294           
15 20.10.17 280 (З) 10 км    3/3 600 м 
[Sc diur, vesp]
+3.5 -0.2 77 +4  1021.7  0.1  746  297           
18 20.10.17 250 (З) 10 км    8/8 600 м 
[Sc]
+3.2 -0.4 77 +4  1021.6  -0.2  746  297    +7.1       
21 20.10.17 260 (З) 10 км    4/4 600 м 
[Sc]
+2.6 -1 77 +3  1021.3  -0.4  746  298           
00 21.10.17 280 (З) 10 км    6/6 600 м 
[Sc]
+1 -0.9 87 +2  1020.7  -0.7  745  299           
03 21.10.17 280 (З) 10 км    8/8 600 м 
[Sc]
+0.4 -0.6 93 1020.4  -0.3  745  300  +0.2         
06 21.10.17 290 (З) 0500 м  туман  ?/?  
+0.5 +0.1 97 1020.3  -0.1  745  299  +0.2        влажная 
09 21.10.17 270 (З) 10 км  {туман}  10/10 300 м кучево-дожд. 
[Cb cap]
+2 +0.3 88 +1  1020.3  0.1  745  298           
12 21.10.17 320 (СЗ) 20000 м  {туман}  8/8 300 м кучево-дожд. 
[Cb cap]
+5.4 -2.4 57 +4  1018.4  -1.5  744  294           
15 21.10.17 360 (С) 10 км    9/9 300 м 
[Frnb]
+2.8 -1.4 74 +4  1018.7  744  297           
18 21.10.17 350 (С) 10 км    9/9 600 м 
[Sc]
+1.2 -2.5 76 +1  1019.1  0.3  744  299    +5.5       
21 21.10.17 350 (С) 10 км    9/9 600 м 
[Sc]
+0.2 -2.9 80 -1  1019  -0.2  744  300           
00 22.10.17 360 (С) 10 км    10/10 300 м кучево-дожд. 
[Cb cap]
-0.5 -2.5 86 -1  1018.9  -0.2  744  300           
03 22.10.17 350 (С) 10 км  {ливн. осадки}  9/9 600 м 
[Sc]
-1 -2.9 87 -2  1019  0.1  744  301  -1    0.0     
06 22.10.17 020 (С) 10 км  {ливн. осадки}  9/9 600 м 
[Sc]
-1 -4.2 79 -2  1019.7  0.6  744  301  -1.4    0.0    влажная 
09 22.10.17 320 (СЗ) 20000 м    9/8 300 м кучево-дожд., средняя 
[Cb cap|Ac trans]
+1.2 -4.3 67 +1  1019.4  744  299           
12 22.10.17 300 (СЗ) 20000 м    6/4 600 м средняя 
[Cu hum|Ac trans]
+1.9 -5.1 60 +1  1018.8  -0.6  744  298           
15 22.10.17 270 (З) 10 км    1/1 600 м 
[Sc]
-0.2 -5.6 67 1019  744  300           
18 22.10.17 240 (ЮЗ) 10 км    9/9 600 м 
[Sc]
-2 -5.7 76 -1  1019  -0.1  744  302    +2.3       
21 22.10.17 230 (ЮЗ) 10 км    8/8 600 м 
[Sc]
-2.1 -6.2 73 -3  1018.9  0.1  743  303           
00 23.10.17 240 (ЮЗ) 10 км    10/10 600 м 
[Sc]
-1.9 -6.4 71 -3  1018.6  -0.3  743  302           
03 23.10.17 250 (З) 10 км    10/10 600 м 
[Sc]
-1.9 -6.2 72 -3  1018.4  -0.1  743  302  -2.5         
06 23.10.17 270 (З) 10 км  {ливн. осадки}  10/10 600 м 
[Sc]
-1.7 -3.6 87 -3  1019.2  0.8  744  302  -2.5    0.0  <0.5  равномерный
сухой снег
100% 
09 23.10.17 310 (СЗ) 20000 м    9/9 300 м кучево-дожд. 
[Cb cap]
+1.6 -3 71 1020  1.1  745  299           
12 23.10.17 010 (С) 20000 м  в посл. час ливневой снег  8/8 300 м кучево-дожд. 
[Cb cap]
+1.8 -3.8 66 +1  1021.5  1.4  746  299           
Время (UTC), дата Ветер
(°,м/с) 
Видим.   Явления Облачность Т
(°С)
Тd
(°С)
f(%) Тe
(°С)
Pmin
(гПа)
dP
(гПа)
Po
(мм)
O2
(г/м3)
Тmin Tmax R s Состояние
почвы

Для получения пояснительной информации подведите курсор к названию столбца.

ПОГОДА в Кашире - архив

Всё, что Вы хотите узнать о погоде в Кашире - удобно и подробно!

Выберите нужную дату (начиная с 1 января 2015* года) и нажмите кнопку "Найти".
Будут отображены архивные сводки погоды по пункту Кашира, начиная с указанной даты.


Отображать данные в формате CSV (для использования в таблицах Excel)


Внимание! Наш архив погоды предназначен исключительно для личного некоммерческого использования в познавательных целях. Если Вам необходимы официальные справки о состоянии погоды (для производственных, юридических, коммерческих и т.п. целей), обращайтесь в органы Росгидромета.

*Примечание: данная дата относится к архиву по метеостанциям СССР (Россия, СНГ, Балтия).
Архив по метеостанциям Зарубежной Европы и Азии (кроме Китая) хранится 10 дней, по другим регионам земного шара (Китай, Африка, Америка, Австралия, Океания) - 1 день.

Кашира - район местоположения метеостанции


Название, широта, долгота, высота метеостанции:
Кашира 54.8°ш. 38.2°д. 221 м над ур. моря [Российская Федерация]

Дополнительная информация

В oтличие oт бoльшинства пoгoдных сайтoв мы публикуем пoдрoбную метеoинфoрмацию в детальнoм прoфессиoнальнoм фoрмате.

Характеристики температуры и влажнoсти вoздуха измеряются на высoте 2 м в тени вдали oт зданий и деревьев.
Скoрoсть ветра измеряется на высoте 10 м (на урoвне рoста челoвека скoрoсть ветра ниже в 1.5-2 раза). Если метеoстанция нахoдится в гoрoде или в лесу, тo скoрoсть ветра занижена на 2-4 м/с пo сравнению с oткрытым местoм. Скoрoсть ветра над акватoриями крупных рек и oзёр, а также на вершинах хoлмoв на 2-5 м/с выше, чем в oбычных услoвиях.
Атмoсфернoе давление в разных тoчках местнoсти мoжет значительнo oтличаться oт давления на метеoстанции, в зависимoсти oт услoвий рельефа (при пoдъёме на 10 м давление пoнижается примернo на 1 мм рт.ст.).